Route Details

Aircraft Information
Group: North America Fleet
Types: B738, B752, B762, B763
Route Data
Distance: 1078nm
Duration: 3h 04m
Origin METAR: KRFD 010454Z 19004KT 10SM CLR M18/M22 A3037 RMK AO2 SLP303 T11831222
Dest. METAR: KMIA 010453Z 13004KT 10SM CLR 23/20 A3019 RMK AO2 SLP222 T02280200 402890222 $
Freight Data
(for Feb 1, 2023)
Load Factor:
36%
Manifested Cargo: 20,805lbs
Financial History
Total Freight: 1,804,507lbs
Average Load: 0lbs/flt
Fuel Used: 832,506lbs
Avg. Fuel Used: 0lbs/flt
Fuel Expense: $539,880
Avg. Fuel Expense: $0
Avg. Fuel Cost: $0/lbs
Total Gross Income: $3,173,925
Pilot Pay: $4,137
Total Expenses: $397,908
Total Revenue: $2,224,086
Average Revenue: $0

Capitol Logistics 354




KRFD
Chicago/Rockford International Airport
Rockford, Illinois
KMIA
Miami International Airport
Miami, Florida

Activity Log

Date Flight Route Aircraft Duration
12/01/2022 CPX354 Not Available B738 2h 39m
06/12/2022 CPX207 DCT JOT DCT IIU DCT LORNN Q65 KERLY DCT DEBRL CSTAL2 B738 2h 52m
10/20/2021 CPX207 AHMED TTH GQO MCN CTY RSW PALMZ1.RSW B752 2h 52m
08/04/2021 CPX207 PIGGG CYBIL PXV J73 LGC GOONS BULZI Q81 ENDEW JUULI SSCOT5 A30F 2h 58m
07/18/2021 CPX207 PIGGG CYBIL PXV J73 LGC GOONS BULZI Q81 ENDEW JUULI SSCOT5 A30F 2h 50m
07/13/2021 CPX207 PIGGG CYBIL PXV J73 LGC GOONS BULZI Q81 ENDEW JUULI SSCOT5 B763 2h 47m
05/20/2021 CPX207 PIGGG CYBIL PXV J73 LGC GOONS BULZI Q81 ENDEW JUULI SSCOT5 A30F 2h 54m
04/04/2021 CPX207 PIGGG CYBIL PXV J73 LGC GOONS BULZI Q81 ENDEW JUULI SSCOT5 B763 2h 46m
02/22/2021 CPX207 BVT J89 ATL J45 OMN HILEY7 B763 2h 52m
02/15/2021 CPX207 BVT J89 ATL J45 OMN HILEY7 B763 3h 02m
02/11/2021 CPX207 BVT J89 ATL J45 OMN HILEY7 B763 2h 54m
02/05/2021 CPX207 BVT J89 ATL J45 OMN HILEY7 B763 2h 54m
01/27/2021 CPX207 BVT J89 ATL J45 OMN HILEY7 B763 2h 56m
01/22/2021 CPX207 BVT J89 ATL J45 OMN HILEY7 B763 2h 37m
05/12/2020 CPX207 JERKY JOT TTH GQO AMG OMN MLB ANNEY4 B763 2h 48m
01/13/2020 CPX207 BVT J89 ATL J45 OMN HILEY7 B763 2h 56m
12/31/2019 CPX451 OBK J89 IIU J99 IRQ J53 ORL V159 TRV B738 3h 00m
12/30/2019 CPX207 BVT J89 ATL J45 OMN HILEY7 B763 3h 24m
11/28/2019 CPX451 BVT J89 ATL J45 OMN HILEY7 B738 2h 47m
07/06/2019 CPX207 BVT J89 ATL J45 OMN HILEY7 B763 3h 10m
05/10/2019 CPX207 BVT J89 ATL J45 OMN HILEY7 B763 2h 50m
12/08/2018 CPX351 JOT LVT TAY SSCOT5 B752 2h 46m
11/29/2018 CPX351 JOT LVT TAY SSCOT4 B752 2h 52m